Powrót do katalogu

CZ-4 DEB

AktywnySSO
NORAD 26444·DEBRIS·🇨🇳 China

Wystrzelony Oct 14, 1999 z Taiyuan Satellite Launch Center

Loading…

Następne Przeloty (najbliższe 24 godziny)

TLE

ŚwieżeSource: Space-Track

Epoka: Sep 14, 2026, 13:00 UTC

1 26444U 99057KR  26257.54204140  .00001584  00000-0  27189-3 0  9990
2 26444  98.5203 345.8351 0067978 138.9857 350.4170 14.68724811402172

Śledź CZ-4 DEB w czasie rzeczywistym z AllMySat

Download on the App Store